Regional Weather Roundup
Issued by NWS

Home | Current Version | Previous Version | Text Only | Print | Product List | Glossary Off
Versions: 1 2 3 4 5 6 7 8 9 10 11 12 13 14 15 16 17 18 19 20 21 22 23 24 25 26 27

000
ASUS45 KCYS 151910
RWRWY

WYOMING REGIONAL WEATHER ROUNDUP
NATIONAL WEATHER SERVICE CHEYENNE WY
1200 PM MST FRI DEC 15 2017

NOTE:  "FAIR" INDICATES FEW OR NO CLOUDS BELOW 12,000 FEET
WITH NO SIGNIFICANT WEATHER AND/OR OBSTRUCTIONS TO VISIBILITY.

WYZ001-152000-
YELLOWSTONE NATIONAL PARK

CITY           SKY/WX    TMP DP  RH WIND       PRES   REMARKS
LK YELLOWSTONE   N/A     22  19  89 CALM      30.16F
W YELLOWSTONE  NOT AVBL

$$
WYZ002>013-054>058-071-098>099-152000-
NORTHERN WYOMING

CITY           SKY/WX    TMP DP  RH WIND       PRES   REMARKS
JACKSON        FAIR      26  16  65 CALM      30.21F
CODY           FAIR      29  20  69 VRB5      29.90F WCI  24
GREYBULL       FAIR      35  20  54 SE5       29.93F WCI  31
WORLAND        FAIR      37  22  54 CALM      29.92F
SHERIDAN       FAIR      43  20  39 NE3       29.77F
BUFFALO        FAIR      58   3  11 S13       29.79F
GILLETTE       FAIR      48  19  31 SW17      29.78F
HULETT         FAIR      45  18  33 SW10      29.78F
NEWCASTLE      FAIR      41  18  38 E3        29.86F

$$
WYZ014>020-022>026-101>103-152000-
CENTRAL WYOMING

CITY           SKY/WX    TMP DP  RH WIND       PRES   REMARKS
BIG PINEY      FAIR      31  15  52 SW3       30.15F
PINEDALE       FAIR      37  16  41 W12       30.14F WCI  30
DUBOIS         FAIR      43   7  22 N25G35    29.99F
LANDER         FAIR      31  17  56 CALM      29.96F
RIVERTON       FAIR      31  18  58 CALM      29.99F
CASPER         FAIR      40  18  41 SW33G43   29.95F WCI  28
DOUGLAS        FAIR      53  17  24 NW24G30   29.89F

$$
WYZ021-027>030-104>119-152000-
SOUTHERN WYOMING

CITY           SKY/WX    TMP DP  RH WIND       PRES   REMARKS
EVANSTON       FAIR      36  16  44 SW10      30.19F WCI  28
FORT BRIDGER   FAIR      44  -3  13 W17G23    30.20F
ROCK SPRINGS   FAIR      39   8  27 W22G31    30.14F WCI  29
DIXON          FAIR      34  15  47 CALM      30.23F
RAWLINS        FAIR      37  17  44 SW8G20    30.12F WCI  31
SARATOGA       FAIR      36  18  48 S12       30.15F WCI  27
LARAMIE        FAIR      36  19  50 SW22G28   30.02F WCI  25
CHEYENNE       FAIR      50  15  24 W26G39    29.93F
TORRINGTON     FAIR      54  16  22 W16       29.87F
PINE BLUFFS    FAIR      52  14  22 W23G36    29.95F

$$




USA.gov is the U.S. government's official web portal to all federal, state and local government web resources and services.